SWR895 LSGG-ENBR

Flight info

Callsign SWR895
Flight time N/A
Altitude 38000
Route DIPIR1A ARBOS DCT PENDU DCT EPL DCT ROUSY DCT ARCKY DCT IBESA DCT GREFI DCT ALUVA ALUVA2N
Aircraft A20N/M-SDE2E3FGHIRWXY/LB1

Departure

Time N/A
Airport Geneva International Airport (LSGG)

Arrival

Time 2026-05-06 17:42
Airport Bergen Airport, Flesland (ENBR)
Time Latitude Longitude Altitude Speed Heading
2026-05-06 17:10 58.05418 5.26343 38031 ft 455 kts 348°
2026-05-06 17:11 58.08582 5.25674 38028 ft 455 kts 348°
2026-05-06 17:11 58.14882 5.24336 38037 ft 456 kts 348°
2026-05-06 17:12 58.21189 5.22993 38033 ft 455 kts 348°
2026-05-06 17:12 58.27456 5.21653 38033 ft 455 kts 348°
2026-05-06 17:13 58.33742 5.20304 38033 ft 455 kts 348°
2026-05-06 17:13 58.40042 5.18947 37972 ft 456 kts 348°
2026-05-06 17:13 58.43195 5.18266 37706 ft 455 kts 348°
2026-05-06 17:14 58.46338 5.17587 37436 ft 454 kts 348°
2026-05-06 17:14 58.49440 5.16916 37180 ft 454 kts 348°
2026-05-06 17:14 58.52586 5.16233 36922 ft 455 kts 348°
2026-05-06 17:14 58.55734 5.15547 36667 ft 455 kts 348°
2026-05-06 17:15 58.58896 5.14859 36403 ft 455 kts 348°
2026-05-06 17:15 58.62044 5.14172 36178 ft 455 kts 348°
2026-05-06 17:15 58.65194 5.13483 35923 ft 455 kts 347°
2026-05-06 17:15 58.68307 5.12801 35677 ft 455 kts 347°
2026-05-06 17:16 58.71464 5.12108 35438 ft 456 kts 347°
2026-05-06 17:16 58.74617 5.11415 35198 ft 456 kts 347°
2026-05-06 17:16 58.77767 5.10721 34961 ft 456 kts 347°
2026-05-06 17:16 58.80917 5.10026 34727 ft 456 kts 347°
2026-05-06 17:17 58.84079 5.09327 34493 ft 456 kts 347°
2026-05-06 17:17 58.87238 5.08628 34259 ft 456 kts 347°
2026-05-06 17:17 58.90365 5.07934 34024 ft 456 kts 347°
2026-05-06 17:17 58.93518 5.07233 33715 ft 457 kts 347°
2026-05-06 17:18 58.96683 5.06529 33103 ft 457 kts 346°
2026-05-06 17:18 58.99856 5.05821 32187 ft 460 kts 346°
2026-05-06 17:18 59.03036 5.05114 31523 ft 457 kts 346°
2026-05-06 17:18 59.06185 5.04416 31015 ft 451 kts 346°
2026-05-06 17:19 59.09276 5.03731 30510 ft 445 kts 345°
2026-05-06 17:19 59.12302 5.03055 29984 ft 440 kts 345°
2026-05-06 17:19 59.15324 5.02376 29446 ft 433 kts 345°
2026-05-06 17:19 59.18294 5.01707 28952 ft 426 kts 345°
2026-05-06 17:20 59.21214 5.01047 28459 ft 419 kts 345°
2026-05-06 17:20 59.24104 5.00395 27928 ft 416 kts 344°
2026-05-06 17:20 59.26968 4.99745 27470 ft 410 kts 344°
2026-05-06 17:20 59.29785 4.99103 27006 ft 407 kts 344°
2026-05-06 17:21 59.32582 4.98466 26527 ft 402 kts 345°
2026-05-06 17:21 59.35343 4.97838 26052 ft 396 kts 345°
2026-05-06 17:21 59.38035 4.97225 25590 ft 391 kts 345°
2026-05-06 17:21 59.40729 4.96633 25121 ft 387 kts 346°
2026-05-06 17:22 59.43401 4.96176 24657 ft 384 kts 347°
2026-05-06 17:22 59.46047 4.95775 24196 ft 380 kts 347°
2026-05-06 17:22 59.48675 4.95378 23718 ft 376 kts 347°
2026-05-06 17:22 59.51277 4.94972 23257 ft 371 kts 346°
2026-05-06 17:23 59.53854 4.94563 22690 ft 368 kts 346°
2026-05-06 17:23 59.56385 4.94154 22256 ft 361 kts 346°
2026-05-06 17:23 59.58846 4.93751 21798 ft 356 kts 346°
2026-05-06 17:23 59.61311 4.93340 21345 ft 361 kts 346°
2026-05-06 17:24 59.63915 4.92874 20858 ft 386 kts 346°
2026-05-06 17:24 59.66634 4.92405 20342 ft 396 kts 347°
2026-05-06 17:24 59.69386 4.91956 19827 ft 396 kts 347°
2026-05-06 17:24 59.72127 4.91518 19311 ft 393 kts 348°
2026-05-06 17:25 59.74800 4.91090 18805 ft 387 kts 348°
2026-05-06 17:25 59.77461 4.90658 18293 ft 381 kts 348°
2026-05-06 17:25 59.80052 4.89989 17809 ft 371 kts 344°
2026-05-06 17:25 59.82585 4.89264 17271 ft 365 kts 344°
2026-05-06 17:26 59.85086 4.88555 16821 ft 357 kts 345°
2026-05-06 17:26 59.87499 4.87881 16664 ft 342 kts 344°
2026-05-06 17:26 59.89810 4.87234 16521 ft 328 kts 344°
2026-05-06 17:26 59.92029 4.86608 16391 ft 314 kts 344°
2026-05-06 17:27 59.94147 4.86007 16264 ft 301 kts 343°
2026-05-06 17:27 59.96182 4.85427 16154 ft 289 kts 343°
2026-05-06 17:27 59.98123 4.84872 16047 ft 276 kts 343°
2026-05-06 17:27 59.99962 4.84346 15943 ft 264 kts 342°
2026-05-06 17:28 60.01761 4.83827 15668 ft 259 kts 342°
2026-05-06 17:28 60.03537 4.83304 15312 ft 257 kts 342°
2026-05-06 17:28 60.05306 4.82784 14952 ft 255 kts 343°
2026-05-06 17:28 60.07055 4.82273 14554 ft 253 kts 343°
2026-05-06 17:29 60.08794 4.81767 14169 ft 251 kts 344°
2026-05-06 17:29 60.10498 4.81255 13728 ft 250 kts 346°
2026-05-06 17:29 60.12223 4.80743 13244 ft 249 kts 347°
2026-05-06 17:29 60.13937 4.80245 12779 ft 248 kts 347°
2026-05-06 17:30 60.15647 4.79752 12321 ft 247 kts 347°
2026-05-06 17:30 60.17346 4.79262 11865 ft 246 kts 347°
2026-05-06 17:30 60.19038 4.78772 11424 ft 245 kts 348°
2026-05-06 17:30 60.20706 4.78288 10989 ft 244 kts 348°
2026-05-06 17:31 60.22379 4.77803 10566 ft 243 kts 348°
2026-05-06 17:31 60.24049 4.77318 10144 ft 242 kts 348°
2026-05-06 17:31 60.25696 4.76841 10002 ft 240 kts 348°
2026-05-06 17:31 60.27377 4.76350 9866 ft 243 kts 348°
2026-05-06 17:32 60.29038 4.75870 9623 ft 239 kts 348°
2026-05-06 17:32 60.30702 4.75955 9281 ft 245 kts 14°
2026-05-06 17:32 60.32281 4.77315 8952 ft 247 kts 22°
2026-05-06 17:32 60.33830 4.78798 8631 ft 245 kts 22°
2026-05-06 17:33 60.35352 4.80254 8314 ft 244 kts 22°
2026-05-06 17:33 60.36887 4.81721 7996 ft 243 kts 22°
2026-05-06 17:33 60.38410 4.83175 7704 ft 241 kts 22°
2026-05-06 17:33 60.39894 4.84587 7537 ft 230 kts 22°
2026-05-06 17:34 60.41308 4.85942 7394 ft 220 kts 22°
2026-05-06 17:34 60.42725 4.87211 7274 ft 222 kts 15°
2026-05-06 17:34 60.44205 4.88098 7018 ft 221 kts 12°
2026-05-06 17:34 60.45685 4.88929 6712 ft 219 kts 12°
2026-05-06 17:35 60.47151 4.89754 6397 ft 218 kts 12°
2026-05-06 17:35 60.48588 4.90561 6075 ft 216 kts 12°
2026-05-06 17:35 60.50040 4.91373 5754 ft 216 kts 12°
2026-05-06 17:36 60.52907 4.93156 5114 ft 217 kts 29°
2026-05-06 17:36 60.53931 4.95374 4799 ft 219 kts 64°
2026-05-06 17:36 60.54241 4.98408 4490 ft 222 kts 86°
2026-05-06 17:36 60.54315 5.01553 4166 ft 222 kts 87°
2026-05-06 17:37 60.54139 5.04561 3952 ft 217 kts 115°
2026-05-06 17:37 60.53211 5.06939 3754 ft 216 kts 146°
2026-05-06 17:37 60.52008 5.08748 3559 ft 212 kts 146°
2026-05-06 17:37 60.50816 5.10522 3431 ft 213 kts 146°
2026-05-06 17:38 60.49621 5.12305 3296 ft 212 kts 146°
2026-05-06 17:38 60.48434 5.14083 3162 ft 212 kts 148°
2026-05-06 17:38 60.47134 5.15460 3037 ft 209 kts 163°
2026-05-06 17:38 60.45740 5.16221 2998 ft 207 kts 171°
2026-05-06 17:39 60.44372 5.16719 3017 ft 190 kts 174°
2026-05-06 17:39 60.43122 5.17142 2833 ft 181 kts 174°
2026-05-06 17:39 60.41895 5.17560 2580 ft 176 kts 174°
2026-05-06 17:39 60.40706 5.17965 2332 ft 169 kts 174°
2026-05-06 17:40 60.39564 5.18346 2100 ft 164 kts 174°
2026-05-06 17:40 60.38446 5.18731 1874 ft 162 kts 174°
2026-05-06 17:40 60.37341 5.19106 1640 ft 157 kts 174°
2026-05-06 17:40 60.36290 5.19467 1380 ft 150 kts 175°
2026-05-06 17:41 60.35265 5.19819 1175 ft 151 kts 174°
2026-05-06 17:41 60.34228 5.20176 963 ft 151 kts 174°
2026-05-06 17:41 60.33188 5.20551 806 ft 152 kts 175°
2026-05-06 17:41 60.32140 5.20867 583 ft 151 kts 174°
2026-05-06 17:42 60.31110 5.21224 357 ft 149 kts 173°
2026-05-06 17:42 60.30102 5.21561 174 ft 143 kts 172°
2026-05-06 17:42 60.29245 5.21847 157 ft 100 kts 170°
2026-05-06 17:42 60.28758 5.22005 162 ft 42 kts 171°
2026-05-06 17:43 60.28666 5.22151 161 ft 11 kts 85°
2026-05-06 17:43 60.28675 5.22276 165 ft 0 kts 81°
2026-05-06 17:44 60.28676 5.22277 165 ft 1 kts 81°
2026-05-06 17:44 60.28689 5.22327 167 ft 8 kts 45°
2026-05-06 17:44 60.28755 5.22336 169 ft 12 kts 350°
2026-05-06 17:44 60.28848 5.22303 170 ft 15 kts 350°
2026-05-06 17:45 60.28928 5.22300 172 ft 5 kts 43°
2026-05-06 17:45 60.28938 5.22341 174 ft 3 kts 67°
2026-05-06 17:45 60.28953 5.22379 175 ft 4 kts 32°
2026-05-06 17:45 60.28962 5.22382 175 ft 0 kts 10°
2026-05-06 17:46 60.28972 5.22386 175 ft 3 kts
2026-05-06 17:47 60.28999 5.22376 175 ft 5 kts 347°
2026-05-06 17:47 60.29029 5.22412 176 ft 6 kts 73°
2026-05-06 17:47 60.29001 5.22500 175 ft 10 kts 139°
2026-05-06 17:47 60.28967 5.22577 175 ft 0 kts 131°
2026-05-06 17:48 60.28965 5.22580 175 ft 0 kts 131°